When you browse on this site, cookies collect data to enhance your experience and personalize the content and advertising you see.
Visit our Privacy Policy to learn more. By continuing to use the site, you agree to this use of cookies and data.
  • In Schweiz
  • Länderverzeichnis
  • Für 7 Tage
  • Wassertemperatur
  • Satellitenkarten
  • Wetterkarte
  • Widgets
  • user-avatar
    Anmelden

    Stündliche Wetter Freiberg

    Heute, 23 Juli, Dienstag

    Zeit Temperatur Niederschläge Wind Luftdruck Luftfeuchtigkeit
    00:00 +19°C° 0 mm 1 m/S 732 mmHg 72%
    01:00 +19°C° 0 mm 1 m/S 731 mmHg 76%
    02:00 +19°C° 0 mm 1 m/S 731 mmHg 77%
    03:00 +18°C° 0 mm 1 m/S 731 mmHg 78%
    04:00 +17°C° 0 mm 2 m/S 731 mmHg 79%
    05:00 +18°C° 0 mm 2 m/S 731 mmHg 77%
    06:00 +19°C° 0 mm 2 m/S 732 mmHg 75%
    07:00 +21°C° 0 mm 2 m/S 732 mmHg 73%
    08:00 +23°C° 0 mm 2 m/S 732 mmHg 69%
    09:00 +24°C° 0 mm 2 m/S 732 mmHg 66%
    10:00 +26°C° 0 mm 2 m/S 732 mmHg 63%
    11:00 +26°C° 0 mm 2 m/S 732 mmHg 59%
    12:00 +27°C° 0 mm 3 m/S 731 mmHg 56%
    13:00 +28°C° 0 mm 3 m/S 731 mmHg 52%
    14:00 +28°C° 0 mm 3 m/S 731 mmHg 51%
    15:00 +29°C° 0 mm 3 m/S 731 mmHg 50%
    16:00 +29°C° 0 mm 3 m/S 731 mmHg 49%
    17:00 +28°C° 0 mm 2 m/S 730 mmHg 55%
    18:00 +27°C° 0 mm 2 m/S 730 mmHg 60%
    19:00 +25°C° 0 mm 2 m/S 730 mmHg 66%
    20:00 +24°C° 0 mm 1 m/S 730 mmHg 69%
    21:00 +22°C° 0 mm 1 m/S 730 mmHg 72%
    22:00 +19°C° 0 mm 0 m/S 730 mmHg 75%
    23:00 +20°C° 0 mm 1 m/S 730 mmHg 76%

    Morgen, 24 Juli, Mittwoch

    Zeit Temperatur Niederschläge Wind Luftdruck Luftfeuchtigkeit
    00:00 +20°C° 0 mm 1 m/S 730 mmHg 76%
    01:00 +19°C° 0 mm 1 m/S 730 mmHg 76%
    02:00 +19°C° 0 mm 1 m/S 730 mmHg 78%
    03:00 +19°C° 0 mm 1 m/S 729 mmHg 79%
    04:00 +19°C° 0 mm 1 m/S 729 mmHg 80%
    05:00 +20°C° 0 mm 1 m/S 729 mmHg 76%
    06:00 +20°C° 0 mm 0 m/S 729 mmHg 71%
    07:00 +21°C° 0 mm 0 m/S 730 mmHg 67%
    08:00 +25°C° 0 mm 1 m/S 730 mmHg 60%
    09:00 +26°C° 0 mm 1 m/S 730 mmHg 53%
    10:00 +28°C° 0 mm 1 m/S 730 mmHg 46%
    11:00 +29°C° 0 mm 1 m/S 730 mmHg 44%
    12:00 +30°C° 0 mm 2 m/S 730 mmHg 41%
    13:00 +30°C° 0 mm 2 m/S 729 mmHg 39%
    14:00 +30°C° 0 mm 2 m/S 729 mmHg 39%
    15:00 +30°C° 0 mm 2 m/S 729 mmHg 39%
    16:00 +30°C° 0 mm 2 m/S 729 mmHg 40%
    17:00 +29°C° 0 mm 2 m/S 729 mmHg 46%
    18:00 +28°C° 0 mm 2 m/S 728 mmHg 51%
    19:00 +26°C° 0 mm 1 m/S 728 mmHg 57%
    20:00 +25°C° 0 mm 1 m/S 728 mmHg 59%
    21:00 +23°C° 0 mm 2 m/S 729 mmHg 60%
    22:00 +21°C° 0 mm 2 m/S 729 mmHg 62%
    23:00 +22°C° 0 mm 1 m/S 729 mmHg 62%

    übermorgen, 25 Juli, Donnerstag

    Zeit Temperatur Niederschläge Wind Luftdruck Luftfeuchtigkeit
    00:00 +21°C° 0 mm 1 m/S 729 mmHg 63%
    01:00 +21°C° 0 mm 1 m/S 729 mmHg 63%
    02:00 +21°C° 0 mm 1 m/S 729 mmHg 63%
    03:00 +20°C° 0 mm 1 m/S 729 mmHg 63%
    04:00 +20°C° 0 mm 1 m/S 729 mmHg 62%
    05:00 +22°C° 0 mm 1 m/S 729 mmHg 61%
    06:00 +23°C° 0 mm 1 m/S 729 mmHg 60%
    07:00 +24°C° 0 mm 1 m/S 729 mmHg 59%
    08:00 +26°C° 0 mm 1 m/S 729 mmHg 54%
    09:00 +28°C° 0 mm 1 m/S 730 mmHg 49%
    10:00 +29°C° 0 mm 2 m/S 730 mmHg 44%
    11:00 +30°C° 0 mm 2 m/S 730 mmHg 41%
    12:00 +31°C° 0 mm 2 m/S 729 mmHg 39%
    13:00 +31°C° 0 mm 2 m/S 729 mmHg 37%
    14:00 +31°C° 0 mm 3 m/S 729 mmHg 36%
    15:00 +31°C° 0 mm 3 m/S 729 mmHg 36%
    16:00 +31°C° 0 mm 3 m/S 729 mmHg 36%
    17:00 +30°C° 0 mm 3 m/S 728 mmHg 43%
    18:00 +28°C° 0 mm 2 m/S 728 mmHg 49%
    19:00 +26°C° 0 mm 2 m/S 728 mmHg 56%
    20:00 +25°C° 0 mm 2 m/S 728 mmHg 58%
    21:00 +23°C° 0 mm 2 m/S 728 mmHg 60%
    22:00 +21°C° 0 mm 2 m/S 728 mmHg 62%
    23:00 +20°C° 0 mm 2 m/S 728 mmHg 65%

    26 Juli, Freitag

    Zeit Temperatur Niederschläge Wind Luftdruck Luftfeuchtigkeit
    00:00 +21°C° 0 mm 1 m/S 728 mmHg 68%
    01:00 +20°C° 0 mm 1 m/S 728 mmHg 71%
    02:00 +20°C° 0 mm 1 m/S 727 mmHg 72%
    03:00 +20°C° 0 mm 1 m/S 727 mmHg 73%
    04:00 +19°C° 0 mm 1 m/S 727 mmHg 74%
    05:00 +21°C° 0 mm 1 m/S 727 mmHg 72%
    06:00 +22°C° 0 mm 1 m/S 727 mmHg 69%
    07:00 +23°C° 0 mm 2 m/S 727 mmHg 67%
    08:00 +25°C° 0 mm 2 m/S 727 mmHg 63%
    09:00 +26°C° 0 mm 3 m/S 728 mmHg 59%
    10:00 +27°C° 0 mm 4 m/S 728 mmHg 55%
    11:00 +27°C° 0 mm 4 m/S 727 mmHg 52%
    12:00 +28°C° 0 mm 4 m/S 727 mmHg 48%
    13:00 +28°C° 0 mm 4 m/S 726 mmHg 45%
    14:00 +28°C° 0 mm 4 m/S 726 mmHg 44%
    15:00 +28°C° 0 mm 4 m/S 726 mmHg 43%
    16:00 +28°C° 0 mm 4 m/S 725 mmHg 43%
    17:00 +27°C° 0 mm 4 m/S 725 mmHg 48%
    18:00 +25°C° 0 mm 3 m/S 725 mmHg 54%
    19:00 +24°C° 0 mm 3 m/S 724 mmHg 60%
    20:00 +22°C° 0 mm 3 m/S 724 mmHg 62%
    21:00 +20°C° 0 mm 3 m/S 724 mmHg 64%
    22:00 +19°C° 0 mm 3 m/S 724 mmHg 67%
    23:00 +19°C° 0 mm 3 m/S 724 mmHg 69%

    27 Juli, Samstag

    Zeit Temperatur Niederschläge Wind Luftdruck Luftfeuchtigkeit
    00:00 +18°C° 0 mm 3 m/S 724 mmHg 71%
    01:00 +18°C° 0 mm 2 m/S 724 mmHg 74%
    02:00 +17°C° 0 mm 2 m/S 724 mmHg 76%
    03:00 +17°C° 0 mm 2 m/S 723 mmHg 78%
    04:00 +16°C° 0 mm 2 m/S 723 mmHg 81%
    05:00 +17°C° 0 mm 2 m/S 723 mmHg 76%
    06:00 +19°C° 0 mm 2 m/S 723 mmHg 72%
    07:00 +20°C° 0 mm 3 m/S 723 mmHg 68%
    08:00 +21°C° 0 mm 3 m/S 724 mmHg 63%
    09:00 +23°C° 0 mm 4 m/S 724 mmHg 58%
    10:00 +25°C° 0 mm 5 m/S 724 mmHg 53%
    11:00 +26°C° 0 mm 5 m/S 723 mmHg 51%
    12:00 +26°C° 0 mm 5 m/S 723 mmHg 49%
    13:00 +27°C° 0 mm 6 m/S 723 mmHg 48%
    14:00 +27°C° 0 mm 5 m/S 722 mmHg 49%
    15:00 +27°C° 0 mm 5 m/S 722 mmHg 51%
    16:00 +26°C° 0 mm 5 m/S 721 mmHg 53%
    17:00 +25°C° 0 mm 5 m/S 721 mmHg 57%
    18:00 +23°C° 0 mm 4 m/S 721 mmHg 61%
    19:00 +22°C° 0 mm 4 m/S 721 mmHg 65%
    20:00 +21°C° 0 mm 4 m/S 721 mmHg 67%
    21:00 +20°C° 0 mm 4 m/S 721 mmHg 69%
    22:00 +19°C° 0 mm 3 m/S 721 mmHg 71%
    23:00 +19°C° 0 mm 3 m/S 721 mmHg 73%

    28 Juli, Sonntag

    Zeit Temperatur Niederschläge Wind Luftdruck Luftfeuchtigkeit
    00:00 +18°C° 0 mm 3 m/S 721 mmHg 74%
    01:00 +18°C° 0 mm 3 m/S 721 mmHg 75%
    02:00 +17°C° 0 mm 2 m/S 721 mmHg 78%
    03:00 +17°C° 0 mm 2 m/S 721 mmHg 80%
    04:00 +16°C° 0 mm 2 m/S 721 mmHg 83%
    05:00 +18°C° 0 mm 3 m/S 721 mmHg 80%
    06:00 +19°C° 0 mm 3 m/S 722 mmHg 77%
    07:00 +20°C° 0 mm 4 m/S 722 mmHg 74%
    08:00 +22°C° 0 mm 4 m/S 722 mmHg 68%
    09:00 +23°C° 0 mm 5 m/S 722 mmHg 63%
    10:00 +26°C° 0 mm 5 m/S 723 mmHg 57%
    11:00 +27°C° 0 mm 5 m/S 723 mmHg 55%
    12:00 +28°C° 0 mm 5 m/S 722 mmHg 53%
    13:00 +28°C° 0 mm 5 m/S 722 mmHg 50%
    14:00 +28°C° 0 mm 5 m/S 722 mmHg 50%
    15:00 +28°C° 0 mm 5 m/S 722 mmHg 50%
    16:00 +29°C° 0 mm 6 m/S 722 mmHg 49%
    17:00 +27°C° 0 mm 5 m/S 722 mmHg 54%
    18:00 +26°C° 0 mm 4 m/S 722 mmHg 59%
    19:00 +25°C° 0 mm 3 m/S 722 mmHg 64%
    20:00 +24°C° 0 mm 3 m/S 723 mmHg 67%
    21:00 +22°C° 0 mm 3 m/S 723 mmHg 69%
    22:00 +21°C° 0 mm 2 m/S 724 mmHg 72%
    23:00 +20°C° 0 mm 2 m/S 724 mmHg 75%
    Mehr zeigen